Regional Weather Roundup
Issued by NWS Kansas City/Pleasant Hill, MO

Home | Current Version | Previous Version | Graphics & Text | Print | Product List | Glossary Off
Versions: 1 2 3 4 5 6 7 8 9 10 11 12 13 14 15 16 17 18 19 20 21 22 23 24 25 26 27 28 29 30 31 32 33 34 35 36 37 38 39 40 41 42 43 44 45 46 47 48 49 50

000
ASUS43 KEAX 311811
RWREAX

WEATHER ROUNDUP FOR EASTERN KANSAS AND NORTHWEST MISSOURI
NATIONAL WEATHER SERVICE KANSAS CITY/PLEASANT HILL MO
100 PM CDT FRI OCT 31 2014

KSZ040-057-103>105-MOZ028-029-037-043-311900-
...KANSAS CITY METROPOLITAN AREA...

CITY           SKY/WX    TMP DP  RH WIND       PRES   REMARKS
K.C. INTL      SUNNY     41  20  43 N9G22     30.49F
6HR MIN TEMP:  33; 6HR MAX TEMP:  42;

K.C. DOWNTOWN  SUNNY     44  18  35 NE13      30.49F
6HR MIN TEMP:  36; 6HR MAX TEMP:  44;

LEES SUMMIT    SUNNY     42  19  39 N14       30.48F WCI  35
6HR MIN TEMP:  35; 6HR MAX TEMP:  42;

OLATHE - IXD   SUNNY     42  20  41 N14       30.49F WCI  35
6HR MIN TEMP:  34; 6HR MAX TEMP:  43;

OLATHE - OJC   SUNNY     42  17  36 N15G22    30.47F WCI  34
6HR MIN TEMP:  35; 6HR MAX TEMP:  42;

LAWRENCE       SUNNY     44  19  36 N14       30.51F

$$

MOZ001>008-011>017-020>025-030>033-038>040-044>046-053-054-311900-
...NORTHERN AND CENTRAL MISSOURI...

CITY           SKY/WX    TMP DP  RH WIND       PRES   REMARKS
ST. JOSEPH     SUNNY     43  19  38 N14G25    30.52F
6HR MIN TEMP:  31; 6HR MAX TEMP:  43;

MOSBY          CLEAR     41  18  38 N16G22    30.49F WCI  33
WHITEMAN AFB   SUNNY     44  20  37 N14       30.43F
6HR MIN TEMP:  37; 6HR MAX TEMP:  44;

CLINTON        SUNNY     45  21  39 N15G22    30.44F
SEDALIA        LGT RAIN  44  20  38 N20G26    30.44F
6HR MIN TEMP:  38; 6HR MAX TEMP:  44; 6HR PCP: TRACE;

WARSAW         NOT AVBL
MARSHALL       SUNNY     45  21  39 N18       30.45F
CHILLICOTHE      N/A     44  18  35 N7G21     30.48F
6HR MIN TEMP:  34; 6HR MAX TEMP:  44;

MOBERLY        SUNNY     45  18  33 NW15G23   30.42S
KIRKSVILLE     SUNNY     42  20  41 NW16G22   30.43S WCI  34
6HR MIN TEMP:  31; 6HR MAX TEMP:  42;


$$

MOZ041-047>049-056>058-063>065-088>090-097-311900-
...EASTERN AND SOUTHERN MISSOURI...

CITY           SKY/WX    TMP DP  RH WIND       PRES   REMARKS
ST. LOUIS INTL MOSUNNY   45  25  45 NW22G28   30.30R
6HR MIN TEMP:  42; 6HR MAX TEMP:  49;

SPIRIT OF STL  MOSUNNY   45  25  45 N16G25    30.31F
COLUMBIA       SUNNY     44  23  43 N17G29    30.39S
JEFFERSON CITY SUNNY     43  21  41 N16       30.40S
MEXICO         SUNNY     45  28  53 N18       30.37F
HANNIBAL       SUNNY     43  18  36 N17G24    30.37F WCI  35
ROLLA          SUNNY     42  22  44 N18G26    30.32S WCI  34
LEBANON        SUNNY     45  18  33 N12G26    30.35S
OSAGE BEACH    SUNNY     45  18  33 N12G21    30.38S
SPRINGFIELD    SUNNY     46  22  38 N20G28    30.36S
BRANSON        MOSUNNY   50  32  50 NW17G26   30.32F
NEVADA         SUNNY     45  21  39 N17       30.45F
JOPLIN         SUNNY     47  27  45 N14G20    30.42F
WEST PLAINS    SUNNY     49  23  36 N17G30    30.27S

$$

IAZ060-094-KSZ022-034>040-054-083-096-NEZ052-066-093-311900-
...KANSAS...SOUTHEAST NEBRASKA AND IOWA...

CITY           SKY/WX    TMP DP  RH WIND       PRES   REMARKS
TOPEKA         SUNNY     44  20  38 N13G20    30.52F
6HR MIN TEMP:  34; 6HR MAX TEMP:  44;

MANHATTAN      SUNNY     43  17  35 NE12      30.53F
EMPORIA        SUNNY     42  18  37 N16G23    30.50F WCI  34
CHANUTE        LGT RAIN  45  22  40 N17       30.47S
WICHITA        SUNNY     46  21  37 N13G22    30.49F
OMAHA          SUNNY     39  19  44 N12       30.57F WCI  32
LINCOLN        SUNNY     40  18  41 N8        30.57F WCI  34
FALLS CITY     SUNNY     42  18  37 N10G20    30.53F
LAMONI         SUNNY     40  20  44 N14G22    30.47F WCI  32
DES MOINES     SUNNY     40  19  43 N13G24    30.50F WCI  32

$$




USA.gov is the U.S. government's official web portal to all federal, state and local government web resources and services.